Regional Weather Roundup
Issued by NWS State College, PA

Home | Current Version | Previous Version | Text Only | Print | Product List | Glossary Off
Versions: 1 2 3 4 5 6 7 8 9 10 11 12 13 14 15 16 17 18 19 20 21 22 23 24 25 26 27 28 29 30 31 32 33 34 35 36 37 38 39 40 41 42 43 44 45 46 47 48 49 50

000
ASUS41 KCTP 250310
RWRCTP

REGIONAL WEATHER ROUNDUP
NATIONAL WEATHER SERVICE STATE COLLEGE PA
1100 PM EDT WED MAY 24 2017

Note: "fair" indicates few or no clouds below 12,000 feet with no
significant weather and/or obstructions to visibility.

* = STATION THAT DOES NOT REPORT PRECIPITATION /E.G. RAIN...SNOW...ETC/
    THUNDER OR FOG.

PAZ002>004-007>009-013>016-020>023-029>032-250400-
WESTERN PENNSYLVANIA

CITY           SKY/WX    TMP DP  RH WIND       PRES   REMARKS
ERIE           CLOUDY    62  54  74 VRB5      29.56F
MEADVILLE      RAIN      57  55  93 E12G21    29.56F FOG
FRANKLIN*      CLOUDY    55  52  88 E16G22    29.58F
NEW CASTLE     CLOUDY    58  56  93 SE8       29.56S
BEAVER COUNTY  NOT AVBL
BUTLER*        CLOUDY    57  54  88 E16G22    29.56S
PITTSBURGH INT CLOUDY    60  56  86 SE16G23   29.53F
PITTSBURGH     LGT RAIN  58  53  84 SE10      29.55S
INDIANA*       CLOUDY    57  55  94 SE13G21   29.63F FOG
LATROBE        LGT RAIN  57  57 100 E13G24    29.58R
WASHINGTON CO* CLOUDY    57  54  88 SE9       29.55S
$$

PAZ004>006-010>012-017>019-024>028-033>037-041-042-045-046-049>053-250400-
CENTRAL PENNSYLVANIA

CITY           SKY/WX    TMP DP  RH WIND       PRES   REMARKS
BRADFORD       LGT RAIN  55  54  96 SE10      29.67R
DUBOIS         CLOUDY    55  52  89 E10G21    29.63F
CLEARFIELD     LGT RAIN  56  55  97 E7        29.67F
JOHNSTOWN      LGT RAIN  54  53  97 SE8G20    29.64R
ALTOONA        LGT RAIN  59  54  83 SE8G23    29.67F
STATE COLLEGE  CLOUDY    61  52  71 E10G18    29.68F
WILLIAMSPORT   CLOUDY    65  52  62 E16G23    29.71S
SELINSGROVE    CLOUDY    64  50  60 SE15      29.74S
FT INDIANTOWN  CLOUDY    63  50  63 E9        29.74F
CAPITAL CITY   NOT AVBL
HARRISBURG     CLOUDY    64  52  64 SE13      29.71F
YORK           CLOUDY    60  55  83 E8        29.72S
$$

PAZ038>040-043-044-047-048-054-055-060>062-067>071-250400-
EASTERN PENNSYLVANIA

CITY           SKY/WX    TMP DP  RH WIND       PRES   REMARKS
SCRANTON       CLOUDY    61  50  67 VRB3      29.77S
MOUNT POCONO   MOCLDY    54  49  83 SE10      29.81R
ALLENTOWN      CLOUDY    61  47  59 E8        29.80R
QUAKERTOWN*    NOT AVBL
READING        CLOUDY    62  49  62 SE7       29.76F
LANCASTER      CLOUDY    62  52  69 SE15G21   29.75F
COATESVILLE    CLOUDY    59  50  72 E12       29.79S
POTTSTOWN      CLOUDY    59  50  72 E7        29.80S
BLUE BELL      CLOUDY    55  50  82 E9G17     29.81S
DOYLESTOWN     CLOUDY    57 N/A N/A CALM      29.79F
WILLOW GROVE   NOT AVBL
NORTH PHILA    CLOUDY    59  51  75 E15       29.81F
PHILADELPHIA   CLOUDY    60  51  72 E12       29.79F
$$




USA.gov is the U.S. government's official web portal to all federal, state and local government web resources and services.